Location: La Silve
(44.2414°N, 5.8889°E)
Time: 12:24:46
(UTC+00:00)

Meteor 2-6 Rocket - Pass Details

Date: 01 December 2020
Orbit: 806 x 914 km, 81.3° (Epoch: 26 January)

Event Time Altitude Azimuth Distance (km) Brightness Sun altitude
Rises 17:24:44 0° 172° (S) 3,414 7.5 -14.9°
Reaches altitude 10° 17:27:14 10° 167° (SSE) 2,465 6.7 -15.4°
Maximum altitude 17:32:34 48° 94° (E) 1,078 4.3 -16.3°
Enters shadow 17:37:45 10° 21° (NNE) 2,406 6.2 -17.2°
